Showing default

TIANQI 20, 64061

Orbit data source: Space-Track

TIANQI 20, 64061 is a payload satellite owned by Guodian Gaokeji (CN) in LEO that was launched on Mon, 19 May 2025 UTC via a GUSHENXING 1 launch vehicle from the Yellow Sea Launch Area, China (YSLA). Payload-class satellites include a variety of spacecraft equipped with specific instruments for various scientific and technological missions. These include communications satellites like Starlink; space stations such as the ISS; scientific satellites like the Hubble; Earth observation satellites from companies like Planet Labs, Umbra, and HawkEye 360; GPS; miniature CubeSats for education and research; and military/defense satellites.

Loading next visibility...
Identifier
64061, 2025-105D
Orbit
LEO
Country
Flag of CNCN / PRC
Related business
Manufacturer
Shanghai ASES
Mission
Operational Commercial Communications
Bus & Motor
STARLIGHTB, Unknown motor
Mass
40 kg wet, ~40 kg dry
Launch date (UTC)
2025-05-19 (1 year ago)
Launch vehicle
GUSHENXING 1
Launch site
Yellow Sea Launch Area, China (YSLA)
Object type
Payload
Rocket body
Debris
Shape & HBR
Box, 0.3 m
Radar Cross Section
0.195 m², Medium (>0.1 m² and < 1m²)

Expand to show TLE details & history
Last TLE update: 11 hours ago

TLE from 11 hours ago
0 TIANQI 20
1 64061U 25105D   26171.37515641  .00000037  00000-0  11398-3 0  9994
2 64061  44.9869   7.8584 0009838  39.4329 320.7218 13.99140663 55655
Epoch: 2026-06-20T09:00Z
TLE epoch observation values (Epoch: 2026-06-20T09:00:13.513Z)
Latitude
-0.00005°
Longitude
-35.78864°
Altitude
891.233 km
Speed
7.411 km/s
True Right ascension
00h 31m 26s
True Declination
0° 00' 00"
Sunlit
Object was in daylight at epoch
Visualization orbit readout
Latitude
Unknown
Longitude
Unknown
Altitude
Unknown
Speed
Unknown
Apparent Right ascension
Unknown
Apparent Declination
Unknown
Sunlit
N/A
Visualization observer readout
Local Sidereal Time
07:20:58
Azimuth
Unknown
Elevation
Unknown
Doppler factor
Unknown
Orbital elements
Apogee altitude
905.451 km
Perigee altitude
891.134 km
Semi-major axis
7,276.43 km
Eccentricity
0.00098
Inclination
44.9869°
RAAN
7.8584°
Arg. of periapsis
39.4329°
True anomaly
320.65036°
Mean anomaly
320.7218°
Eccentric anomaly
320.68609°
Mean motion
3.49676 °/min
Orbital period
102.95 mins
BSTAR
0.00011398
Loading maneuver chart data...
Computing Atmospheric mass density...
Loading historical data...
Loading historical data...
Loading historical data...
Loading historical data...
Loading historical data...
Loading historical data...
Loading historical data...
Other satellites on launch #105 in the year 2025 (2025-05-19 UTC)

Documentation

Showing up to 5 results
|